Dania, FL

6:38 PM EST on February 09, 2016 (GMT -0500)
Fort Lauderdale-Hollywood International

Weather History for KFLL - July, 2014

Change the Weather History Date:

Sunday, July 6, 2014

  Actual Average Record
Temperature  
Mean Temperature 84 °F 84 °F  
Max Temperature 89 °F 90 °F 97 °F (1954)
Min Temperature 79 °F 78 °F 69 °F (1949)
Degree Days  
Heating Degree Days 0 0  
Month to date heating degree days 0 0  
Since 1 June heating degree days 0 0  
Since 1 July heating degree days 0 0  
Cooling Degree Days 19 19  
Month to date cooling degree days 117 114  
Year to date cooling degree days 2168 2075  
Since 1 June cooling degree days 633 657  
Growing Degree Days 34 (Base 50)    
Moisture  
Dew Point 74 °F    
Average Humidity 78    
Maximum Humidity 85    
Minimum Humidity 70    
Precipitation  
Precipitation 0.24 in 0.22 in 2.12 in (1977)
Month to date precipitation 3.37 1.37  
Year to date precipitation 32.61 29.02  
Snow  
Snow 0.00 in - - ()
Month to date snowfall 0.0  
Since 1 June snowfall 0.0  
Since 1 July snowfall 0.0  
Snow Depth 0.00 in    
Sea Level Pressure  
Sea Level Pressure 30.07 in    
Wind  
Wind Speed 6 mph (SSE)    
Max Wind Speed 17 mph    
Max Gust Speed 22 mph    
Visibility 10 miles    
Events Rain , Thunderstorm    
T = Trace of Precipitation, MM = Missing Value Source: NWS Daily Summary

Daily Weather History Graph

Daily Weather History Graph

Search for Another Location

Airport or City:

Trip Planner

Search our weather history database for the weather conditions in past years. The results will help you decide how hot, cold, wet, or windy it might be!

Date:

Astronomy

Jul. 06, 2014 Rise Set
Actual Time 6:34 AM EDT 8:16 PM EDT
Civil Twilight 6:08 AM EDT 8:42 PM EDT
Nautical Twilight 5:37 AM EDT 9:13 PM EDT
Astronomical Twilight 5:04 AM EDT 9:46 PM EDT
Moon 2:34 PM EDT (7/6) 1:29 AM EDT (7/6)
Length of Visible Light 14h 34m
Length of Day
13h 42m
Waxing Gibbous, 62% of the Moon is Illuminated
Jul 6
Waxing Gibbous
Jul 12
Full
Jul 18
Last Quarter
Jul 26
New
Aug 3
First Quarter

Hourly Weather History & Observations

Time (EDT) Temp. Heat Index Dew Point Humidity Pressure Visibility Wind Dir Wind Speed Gust Speed Precip Events Conditions
12:53 AM 82.9 °F 89.4 °F 73.9 °F 74% 30.08 in 10.0 mi East 5.8 mph - N/A   Scattered Clouds
1:53 AM 82.0 °F 87.9 °F 73.9 °F 76% 30.06 in 10.0 mi East 4.6 mph - N/A   Scattered Clouds
2:53 AM 82.0 °F 88.6 °F 75.0 °F 79% 30.05 in 10.0 mi East 6.9 mph - N/A   Scattered Clouds
3:53 AM 82.0 °F 88.6 °F 75.0 °F 79% 30.03 in 10.0 mi East 9.2 mph - N/A   Scattered Clouds
4:53 AM 82.0 °F 88.6 °F 75.0 °F 79% 30.03 in 10.0 mi ESE 9.2 mph - N/A   Scattered Clouds
5:53 AM 82.0 °F 88.6 °F 75.0 °F 79% 30.03 in 10.0 mi SE 9.2 mph - N/A   Scattered Clouds
6:53 AM 82.0 °F 88.6 °F 75.0 °F 79% 30.05 in 10.0 mi SE 4.6 mph - N/A   Scattered Clouds
7:44 AM 82.0 °F 88.6 °F 75.0 °F 79% 30.06 in 2.0 mi Variable 3.5 mph - N/A Rain Rain
7:53 AM 79.0 °F - 73.0 °F 82% 30.06 in 6.0 mi West 5.8 mph - 0.21 in Rain Rain
8:53 AM 81.0 °F 87.9 °F 77.0 °F 88% 30.07 in 10.0 mi SSW 4.6 mph - N/A   Mostly Cloudy
9:53 AM 82.9 °F 90.8 °F 75.9 °F 79% 30.09 in 9.0 mi SE 6.9 mph - N/A Rain Rain
10:13 AM 82.9 °F 90.2 °F 75.0 °F 77% 30.08 in 10.0 mi South 5.8 mph - N/A Thunderstorm Thunderstorm
10:32 AM 84.0 °F 92.6 °F 75.9 °F 76% 30.08 in 10.0 mi SE 8.1 mph - N/A   Scattered Clouds
10:53 AM 86.0 °F 96.0 °F 75.9 °F 72% 30.09 in 10.0 mi SSE 16.1 mph - N/A   Scattered Clouds
11:18 AM 89.1 °F 100.2 °F 75.9 °F 65% 30.09 in 10.0 mi SSE 13.8 mph - N/A Thunderstorm Thunderstorm
11:37 AM 81.0 °F 85.2 °F 72.0 °F 74% 30.10 in 10.0 mi West 11.5 mph - N/A Thunderstorm Thunderstorm
11:53 AM 79.0 °F - 71.1 °F 77% 30.10 in 10.0 mi WNW 6.9 mph - N/A Thunderstorm Thunderstorm
12:10 PM 80.1 °F 83.6 °F 71.1 °F 74% 30.10 in 10.0 mi West 6.9 mph - N/A   Overcast
12:53 PM 81.0 °F 85.2 °F 72.0 °F 74% 30.08 in 10.0 mi SE 4.6 mph - 0.00 in   Mostly Cloudy
1:53 PM 84.9 °F 92.1 °F 73.9 °F 69% 30.06 in 10.0 mi SSE 10.4 mph - N/A   Mostly Cloudy
2:53 PM 86.0 °F 95.1 °F 75.0 °F 70% 30.05 in 10.0 mi SSE 10.4 mph - N/A   Mostly Cloudy
3:53 PM 86.0 °F 95.1 °F 75.0 °F 70% 30.05 in 10.0 mi SSW 9.2 mph - N/A   Mostly Cloudy
4:34 PM 84.9 °F 92.1 °F 73.9 °F 69% 30.03 in 10.0 mi SSE 13.8 mph - N/A Thunderstorm Thunderstorm
4:53 PM 84.0 °F 91.2 °F 73.9 °F 72% 30.04 in 10.0 mi WSW 11.5 mph - N/A Thunderstorm Thunderstorm
5:29 PM 81.0 °F 86.2 °F 73.9 °F 79% 30.04 in 10.0 mi West 3.5 mph - N/A   Overcast
5:53 PM 82.0 °F 87.4 °F 73.0 °F 74% 30.05 in 10.0 mi South 3.5 mph - N/A   Overcast
6:53 PM 82.9 °F 90.2 °F 75.0 °F 77% 30.06 in 10.0 mi NNW 4.6 mph - N/A   Overcast
7:53 PM 81.0 °F 86.7 °F 75.0 °F 82% 30.06 in 10.0 mi NNW 3.5 mph - N/A   Overcast
8:53 PM 80.1 °F 84.5 °F 73.9 °F 81% 30.07 in 10.0 mi Calm Calm - N/A   Overcast
9:53 PM 81.0 °F 86.2 °F 73.9 °F 79% 30.09 in 10.0 mi Calm Calm - N/A   Overcast
10:53 PM 80.1 °F 84.5 °F 73.9 °F 81% 30.09 in 10.0 mi Calm Calm - N/A   Mostly Cloudy
11:53 PM 79.0 °F - 73.9 °F 84% 30.08 in 10.0 mi Calm Calm - N/A   Mostly Cloudy